Location: Ford County Road and Bridge Department
(37.7686°N, 99.9762°W)
Time: 14:28:49
(UTC+00:00)

ISS - Pass Details

Date: 18 January 2020
Orbit: 415 x 422 km, 51.6° (Epoch: 27 February)

Event Time Altitude Azimuth Distance (km) Brightness Sun altitude
Rises 01:42:58 0° 209° (SSW) 2,363 0.6 -22.7°
Reaches altitude 10° 01:45:11 10° 200° (SSW) 1,501 -0.6 -23.1°
Enters shadow 01:46:16 18° 189° (S) 1,113 -1.5 -23.3°
